AFR7418 LPMA-LFBO

Flight info

Callsign AFR7418
Flight time N/A
Altitude 36000
Route OTZIL DCT GIKAR DCT BAROK/N0443F380 DCT ROKTE DCT PESAS N858 SIE T430 LPA DCT VEGEL DCT AKEPO DCT USAKU DCT BUROX
Aircraft A320/M-SDE3FGHIRWY/LB1

Departure

Time N/A
Airport Cristiano Ronaldo International Airport (LPMA)

Arrival

Time 2026-05-04 19:18
Airport Toulouse-Blagnac Airport (LFBO)
Time Latitude Longitude Altitude Speed Heading
2026-05-04 19:00 42.86918 -0.06301 28961 ft 442 kts 55°
2026-05-04 19:00 42.88758 -0.02955 28382 ft 439 kts 55°
2026-05-04 19:00 42.90585 0.00376 27776 ft 437 kts 56°
2026-05-04 19:00 42.92397 0.03683 27235 ft 435 kts 56°
2026-05-04 19:01 42.94204 0.06987 26660 ft 433 kts 56°
2026-05-04 19:01 42.96002 0.10269 26100 ft 431 kts 56°
2026-05-04 19:01 42.97796 0.13538 25532 ft 429 kts 56°
2026-05-04 19:01 42.99587 0.16794 24959 ft 428 kts 56°
2026-05-04 19:02 43.01370 0.20037 24415 ft 426 kts 56°
2026-05-04 19:02 43.03145 0.23280 23873 ft 425 kts 56°
2026-05-04 19:02 43.04848 0.26487 23141 ft 421 kts 61°
2026-05-04 19:02 43.06177 0.30049 21924 ft 422 kts 68°
2026-05-04 19:03 43.07423 0.33694 21140 ft 423 kts 68°
2026-05-04 19:03 43.08655 0.37321 20679 ft 418 kts 68°
2026-05-04 19:03 43.09872 0.40910 20182 ft 414 kts 68°
2026-05-04 19:03 43.11075 0.44461 19680 ft 410 kts 68°
2026-05-04 19:04 43.12196 0.48005 19024 ft 400 kts 70°
2026-05-04 19:04 43.13212 0.51531 18528 ft 397 kts 71°
2026-05-04 19:04 43.14175 0.55065 17981 ft 396 kts 72°
2026-05-04 19:04 43.15103 0.58545 17463 ft 393 kts 72°
2026-05-04 19:05 43.16038 0.62043 16939 ft 390 kts 72°
2026-05-04 19:05 43.16977 0.65525 16423 ft 388 kts 71°
2026-05-04 19:05 43.17922 0.68977 15911 ft 387 kts 71°
2026-05-04 19:05 43.18875 0.72415 15398 ft 385 kts 71°
2026-05-04 19:06 43.19825 0.75835 14884 ft 383 kts 71°
2026-05-04 19:06 43.20771 0.79238 14374 ft 381 kts 71°
2026-05-04 19:06 43.21715 0.82627 13883 ft 379 kts 71°
2026-05-04 19:06 43.22654 0.85993 13354 ft 377 kts 71°
2026-05-04 19:07 43.23573 0.89291 12853 ft 373 kts 71°
2026-05-04 19:07 43.24492 0.92599 12344 ft 370 kts 71°
2026-05-04 19:07 43.25402 0.95880 11838 ft 367 kts 70°
2026-05-04 19:07 43.26304 0.99139 11327 ft 364 kts 71°
2026-05-04 19:08 43.27198 1.02377 10812 ft 361 kts 70°
2026-05-04 19:08 43.28084 1.05583 10446 ft 355 kts 71°
2026-05-04 19:08 43.28940 1.08675 10315 ft 338 kts 70°
2026-05-04 19:08 43.29756 1.11634 10199 ft 325 kts 70°
2026-05-04 19:09 43.30539 1.14490 10063 ft 314 kts 71°
2026-05-04 19:09 43.31294 1.17246 9911 ft 304 kts 70°
2026-05-04 19:09 43.32022 1.19902 9627 ft 299 kts 70°
2026-05-04 19:09 43.32750 1.22561 9162 ft 295 kts 69°
2026-05-04 19:10 43.33471 1.25200 8777 ft 295 kts 69°
2026-05-04 19:10 43.34187 1.27821 8409 ft 292 kts 69°
2026-05-04 19:10 43.34900 1.30428 8029 ft 291 kts 69°
2026-05-04 19:10 43.35611 1.33025 7655 ft 289 kts 69°
2026-05-04 19:11 43.36317 1.35606 7311 ft 287 kts 68°
2026-05-04 19:11 43.37014 1.38169 6950 ft 285 kts 68°
2026-05-04 19:11 43.37701 1.40703 6582 ft 278 kts 68°
2026-05-04 19:11 43.38361 1.43134 6229 ft 265 kts 66°
2026-05-04 19:12 43.39019 1.45395 5894 ft 252 kts 58°
2026-05-04 19:12 43.41359 1.48765 5251 ft 240 kts 25°
2026-05-04 19:12 43.42815 1.49839 4932 ft 236 kts 24°
2026-05-04 19:13 43.44256 1.50903 4617 ft 233 kts 24°
2026-05-04 19:13 43.45689 1.51863 4295 ft 222 kts 11°
2026-05-04 19:13 43.47140 1.51975 4031 ft 200 kts 343°
2026-05-04 19:13 43.48345 1.51262 3819 ft 181 kts 321°
2026-05-04 19:14 43.49005 1.50583 3673 ft 177 kts 321°
2026-05-04 19:14 43.50295 1.49247 3372 ft 174 kts 320°
2026-05-04 19:14 43.51257 1.48251 3142 ft 172 kts 320°
2026-05-04 19:14 43.52209 1.47266 2909 ft 171 kts 319°
2026-05-04 19:15 43.53154 1.46286 2682 ft 169 kts 319°
2026-05-04 19:15 43.53773 1.45646 2570 ft 168 kts 319°
2026-05-04 19:15 43.55016 1.44357 2232 ft 167 kts 319°
2026-05-04 19:15 43.55930 1.43410 1994 ft 158 kts 320°
2026-05-04 19:16 43.56490 1.42831 1855 ft 146 kts 319°
2026-05-04 19:16 43.57275 1.42016 1687 ft 138 kts 318°
2026-05-04 19:16 43.58276 1.40976 1431 ft 134 kts 317°
2026-05-04 19:16 43.59023 1.40200 1246 ft 134 kts 320°
2026-05-04 19:17 43.59532 1.39671 1135 ft 136 kts 319°
2026-05-04 19:17 43.60275 1.38904 937 ft 135 kts 321°
2026-05-04 19:17 43.61023 1.38121 769 ft 135 kts 322°
2026-05-04 19:17 43.61769 1.37350 586 ft 133 kts 320°
2026-05-04 19:18 43.62479 1.36606 491 ft 115 kts 325°
2026-05-04 19:18 43.63022 1.36041 488 ft 84 kts 323°
2026-05-04 19:18 43.63353 1.35699 495 ft 43 kts 321°
2026-05-04 19:18 43.63514 1.35530 487 ft 19 kts 323°
2026-05-04 19:19 43.63589 1.35521 490 ft 10 kts 37°
2026-05-04 19:19 43.63621 1.35581 490 ft 6 kts 54°
2026-05-04 19:19 43.63644 1.35621 493 ft 8 kts 53°
2026-05-04 19:19 43.63676 1.35681 495 ft 6 kts 52°
2026-05-04 19:20 43.63715 1.35750 492 ft 10 kts 52°
2026-05-04 19:20 43.63748 1.35809 491 ft 5 kts 52°
2026-05-04 19:20 43.63772 1.35852 491 ft 7 kts 53°
2026-05-04 19:20 43.63800 1.35904 492 ft 6 kts 53°
2026-05-04 19:21 43.63819 1.35967 490 ft 10 kts 91°
2026-05-04 19:21 43.63766 1.36043 492 ft 12 kts 143°
2026-05-04 19:21 43.63713 1.36098 491 ft 7 kts 143°
2026-05-04 19:21 43.63682 1.36130 495 ft 4 kts 142°
2026-05-04 19:22 43.63669 1.36144 495 ft 1 kts 142°
2026-05-04 19:22 43.63638 1.36175 492 ft 13 kts 144°
2026-05-04 19:22 43.63561 1.36256 492 ft 13 kts 142°
2026-05-04 19:22 43.63494 1.36325 495 ft 11 kts 143°
2026-05-04 19:23 43.63422 1.36400 487 ft 16 kts 143°
2026-05-04 19:23 43.63321 1.36506 492 ft 18 kts 143°
2026-05-04 19:23 43.63224 1.36606 495 ft 16 kts 143°
2026-05-04 19:23 43.63137 1.36695 490 ft 15 kts 142°
2026-05-04 19:24 43.63060 1.36777 492 ft 13 kts 143°
2026-05-04 19:24 43.62989 1.36851 495 ft 12 kts 143°
2026-05-04 19:24 43.62927 1.36918 495 ft 11 kts 142°
2026-05-04 19:24 43.62871 1.36974 492 ft 10 kts 144°
2026-05-04 19:25 43.62833 1.37046 492 ft 11 kts 92°
2026-05-04 19:25 43.62870 1.37134 495 ft 10 kts 53°
2026-05-04 19:25 43.62907 1.37205 487 ft 6 kts 62°
2026-05-04 19:25 43.62897 1.37254 490 ft 5 kts 127°
2026-05-04 19:26 43.62862 1.37293 494 ft 6 kts 141°
2026-05-04 19:26 43.62867 1.37325 494 ft 3 kts 47°
2026-05-04 19:26 43.62881 1.37347 492 ft 3 kts 49°
2026-05-04 19:26 43.62894 1.37368 492 ft 2 kts 48°
2026-05-04 19:27 43.62903 1.37381 492 ft 2 kts 48°
2026-05-04 19:27 43.62909 1.37391 494 ft 1 kts 48°
2026-05-04 19:27 43.62912 1.37394 494 ft 0 kts 48°